• In Lithuania
  • List of Countries
  • For 7 days
  • Water Temperature
  • Satellite Maps
  • Weather Map
  • Weather Widgets
  • user-avatar
    Login

    Hourly Weather La Paz

    Today, 19 January, Friday

    Time Temperature Precipitation Wind Pressure Humidity
    00:00 +6°C° 0.3 mm 2 mps 474 mmHg 86%
    01:00 +5°C° 0.3 mm 2 mps 474 mmHg 86%
    02:00 +5°C° 0.5 mm 2 mps 474 mmHg 86%
    03:00 +6°C° 0.5 mm 1 mps 474 mmHg 86%
    04:00 +6°C° 0.5 mm 1 mps 474 mmHg 86%
    05:00 +6°C° 0.6 mm 1 mps 474 mmHg 84%
    06:00 +6°C° 0.6 mm 1 mps 475 mmHg 81%
    07:00 +7°C° 0.6 mm 1 mps 475 mmHg 79%
    08:00 +8°C° 0.6 mm 1 mps 476 mmHg 75%
    09:00 +8°C° 0.6 mm 2 mps 477 mmHg 70%
    10:00 +9°C° 0.6 mm 2 mps 478 mmHg 66%
    11:00 +10°C° 0.5 mm 3 mps 478 mmHg 64%
    12:00 +11°C° 0.5 mm 3 mps 478 mmHg 63%
    13:00 +12°C° 0.5 mm 4 mps 478 mmHg 61%
    14:00 +11°C° 0.6 mm 4 mps 477 mmHg 62%
    15:00 +11°C° 0.6 mm 4 mps 476 mmHg 64%
    16:00 +10°C° 0.6 mm 4 mps 476 mmHg 66%
    17:00 +8°C° 0.2 mm 4 mps 475 mmHg 72%
    18:00 +8°C° 0.2 mm 3 mps 475 mmHg 78%
    19:00 +5°C° 0.2 mm 3 mps 474 mmHg 84%
    20:00 +5°C° 0 mm 3 mps 474 mmHg 85%
    21:00 +6°C° 0 mm 2 mps 474 mmHg 86%
    22:00 +5°C° 0 mm 2 mps 474 mmHg 87%
    23:00 +5°C° 0.1 mm 2 mps 474 mmHg 87%

    Tomorrow, 20 January, Saturday

    Time Temperature Precipitation Wind Pressure Humidity
    00:00 +6°C° 0.1 mm 1 mps 474 mmHg 86%
    01:00 +5°C° 0.1 mm 1 mps 473 mmHg 86%
    02:00 +5°C° 0.2 mm 1 mps 473 mmHg 86%
    03:00 +5°C° 0.2 mm 1 mps 473 mmHg 85%
    04:00 +5°C° 0.2 mm 1 mps 473 mmHg 85%
    05:00 +6°C° 0.1 mm 1 mps 474 mmHg 82%
    06:00 +7°C° 0.1 mm 1 mps 475 mmHg 80%
    07:00 +7°C° 0.1 mm 1 mps 475 mmHg 77%
    08:00 +8°C° 0.2 mm 1 mps 476 mmHg 73%
    09:00 +9°C° 0.2 mm 2 mps 477 mmHg 68%
    10:00 +10°C° 0.2 mm 3 mps 477 mmHg 63%
    11:00 +10°C° 0.3 mm 3 mps 477 mmHg 62%
    12:00 +11°C° 0.3 mm 3 mps 477 mmHg 60%
    13:00 +12°C° 0.3 mm 4 mps 477 mmHg 59%
    14:00 +11°C° 0.8 mm 4 mps 476 mmHg 63%
    15:00 +11°C° 0.8 mm 4 mps 475 mmHg 66%
    16:00 +10°C° 0.8 mm 4 mps 474 mmHg 70%
    17:00 +9°C° 0.6 mm 3 mps 474 mmHg 76%
    18:00 +8°C° 0.6 mm 3 mps 474 mmHg 82%
    19:00 +7°C° 0.6 mm 3 mps 473 mmHg 88%
    20:00 +6°C° 0.1 mm 2 mps 474 mmHg 89%
    21:00 +6°C° 0.1 mm 2 mps 474 mmHg 91%
    22:00 +5°C° 0.1 mm 2 mps 474 mmHg 93%
    23:00 +5°C° 0 mm 2 mps 474 mmHg 93%

    Day after tomorrow, 21 January, Sunday

    Time Temperature Precipitation Wind Pressure Humidity
    00:00 +5°C° 0 mm 2 mps 473 mmHg 92%
    01:00 +6°C° 0 mm 1 mps 473 mmHg 92%
    02:00 +6°C° 0 mm 1 mps 473 mmHg 91%
    03:00 +6°C° 0 mm 1 mps 472 mmHg 90%
    04:00 +5°C° 0 mm 1 mps 472 mmHg 89%
    05:00 +6°C° 0 mm 1 mps 473 mmHg 84%
    06:00 +7°C° 0 mm 1 mps 474 mmHg 79%
    07:00 +8°C° 0 mm 1 mps 475 mmHg 75%
    08:00 +8°C° 0 mm 2 mps 476 mmHg 69%
    09:00 +10°C° 0 mm 2 mps 476 mmHg 63%
    10:00 +11°C° 0 mm 3 mps 477 mmHg 57%
    11:00 +12°C° 0.3 mm 3 mps 477 mmHg 57%
    12:00 +12°C° 0.3 mm 4 mps 476 mmHg 56%
    13:00 +13°C° 0.3 mm 4 mps 476 mmHg 56%
    14:00 +12°C° 0.3 mm 4 mps 475 mmHg 59%
    15:00 +12°C° 0.3 mm 4 mps 475 mmHg 62%
    16:00 +11°C° 0.3 mm 4 mps 474 mmHg 66%
    17:00 +10°C° 0.2 mm 4 mps 474 mmHg 72%
    18:00 +9°C° 0.2 mm 3 mps 473 mmHg 79%
    19:00 +8°C° 0.2 mm 3 mps 473 mmHg 86%
    20:00 +7°C° 0.1 mm 3 mps 473 mmHg 87%
    21:00 +6°C° 0.1 mm 2 mps 473 mmHg 88%
    22:00 +6°C° 0.1 mm 2 mps 473 mmHg 90%
    23:00 +6°C° 0 mm 2 mps 473 mmHg 89%

    22 January, Monday

    Time Temperature Precipitation Wind Pressure Humidity
    00:00 +5°C° 0 mm 2 mps 472 mmHg 88%
    01:00 +6°C° 0 mm 1 mps 472 mmHg 87%
    02:00 +6°C° 0 mm 1 mps 472 mmHg 87%
    03:00 +6°C° 0 mm 1 mps 472 mmHg 86%
    04:00 +6°C° 0 mm 1 mps 472 mmHg 85%
    05:00 +7°C° 0 mm 1 mps 472 mmHg 81%
    06:00 +7°C° 0 mm 1 mps 473 mmHg 78%
    07:00 +8°C° 0 mm 1 mps 474 mmHg 74%
    08:00 +8°C° 0 mm 2 mps 475 mmHg 68%
    09:00 +10°C° 0 mm 2 mps 475 mmHg 63%
    10:00 +11°C° 0 mm 3 mps 476 mmHg 57%
    11:00 +12°C° 0.2 mm 3 mps 476 mmHg 56%
    12:00 +12°C° 0.2 mm 4 mps 475 mmHg 56%
    13:00 +13°C° 0.2 mm 4 mps 475 mmHg 55%
    14:00 +12°C° 0.1 mm 4 mps 474 mmHg 59%
    15:00 +11°C° 0.1 mm 4 mps 474 mmHg 63%
    16:00 +11°C° 0.1 mm 4 mps 473 mmHg 67%
    17:00 +9°C° 0.1 mm 3 mps 473 mmHg 73%
    18:00 +8°C° 0.1 mm 3 mps 473 mmHg 79%
    19:00 +7°C° 0.1 mm 3 mps 472 mmHg 85%
    20:00 +7°C° 0 mm 3 mps 472 mmHg 86%
    21:00 +6°C° 0 mm 2 mps 473 mmHg 87%
    22:00 +6°C° 0 mm 2 mps 473 mmHg 89%
    23:00 +6°C° 0 mm 2 mps 472 mmHg 88%

    23 January, Tuesday

    Time Temperature Precipitation Wind Pressure Humidity
    00:00 +6°C° 0 mm 1 mps 472 mmHg 88%
    01:00 +6°C° 0 mm 1 mps 471 mmHg 88%
    02:00 +6°C° 0 mm 1 mps 471 mmHg 88%
    03:00 +6°C° 0 mm 1 mps 471 mmHg 87%
    04:00 +5°C° 0 mm 1 mps 471 mmHg 86%
    05:00 +6°C° 0 mm 1 mps 472 mmHg 81%
    06:00 +7°C° 0 mm 1 mps 473 mmHg 76%
    07:00 +8°C° 0 mm 1 mps 474 mmHg 71%
    08:00 +9°C° 0 mm 2 mps 475 mmHg 63%
    09:00 +11°C° 0 mm 3 mps 476 mmHg 56%
    10:00 +12°C° 0 mm 3 mps 477 mmHg 48%
    11:00 +13°C° 0.2 mm 4 mps 476 mmHg 47%
    12:00 +14°C° 0.2 mm 4 mps 476 mmHg 47%
    13:00 +14°C° 0.2 mm 5 mps 476 mmHg 46%
    14:00 +13°C° 0.3 mm 5 mps 475 mmHg 52%
    15:00 +12°C° 0.3 mm 5 mps 474 mmHg 57%
    16:00 +10°C° 0.3 mm 5 mps 473 mmHg 62%
    17:00 +10°C° 0.2 mm 4 mps 473 mmHg 69%
    18:00 +8°C° 0.2 mm 4 mps 473 mmHg 76%
    19:00 +7°C° 0.2 mm 3 mps 472 mmHg 84%
    20:00 +7°C° 0.1 mm 3 mps 472 mmHg 84%
    21:00 +6°C° 0.1 mm 2 mps 473 mmHg 85%
    22:00 +6°C° 0.1 mm 2 mps 473 mmHg 86%
    23:00 +6°C° 0.1 mm 2 mps 473 mmHg 86%

    24 January, Wednesday

    Time Temperature Precipitation Wind Pressure Humidity
    00:00 +6°C° 0.1 mm 2 mps 472 mmHg 85%
    01:00 +6°C° 0.1 mm 1 mps 472 mmHg 84%
    02:00 +6°C° 0.1 mm 1 mps 472 mmHg 84%
    03:00 +6°C° 0.1 mm 1 mps 471 mmHg 84%
    04:00 +6°C° 0.1 mm 1 mps 471 mmHg 84%
    05:00 +6°C° 0 mm 1 mps 472 mmHg 80%
    06:00 +7°C° 0 mm 1 mps 473 mmHg 75%
    07:00 +8°C° 0 mm 1 mps 474 mmHg 71%
    08:00 +9°C° 0.1 mm 2 mps 475 mmHg 66%
    09:00 +10°C° 0.1 mm 3 mps 476 mmHg 60%
    10:00 +12°C° 0.1 mm 3 mps 477 mmHg 54%
    11:00 +12°C° 0.3 mm 4 mps 476 mmHg 54%
    12:00 +12°C° 0.3 mm 4 mps 476 mmHg 53%
    13:00 +13°C° 0.3 mm 4 mps 476 mmHg 53%
    14:00 +12°C° 0.1 mm 4 mps 475 mmHg 57%
    15:00 +12°C° 0.1 mm 4 mps 475 mmHg 60%
    16:00 +11°C° 0.1 mm 4 mps 474 mmHg 63%
    17:00 +10°C° 0 mm 4 mps 474 mmHg 70%
    18:00 +8°C° 0 mm 3 mps 473 mmHg 77%
    19:00 +7°C° 0 mm 3 mps 473 mmHg 83%
    20:00 +7°C° 0 mm 2 mps 473 mmHg 84%
    21:00 +6°C° 0 mm 2 mps 473 mmHg 85%
    22:00 +6°C° 0 mm 2 mps 473 mmHg 86%
    23:00 +7°C° 0 mm 1 mps 473 mmHg 86%
    Show more